,,,PA_Meas_PMT16A,,PR_Meas_QMR101_102,,RH_Meas_QMH101,,SR_Meas_QMS101,,TA_Meas_QMH101,,GenWind,,GenWind,
date,time,status,PA,status,PR,status,RH,status,SR,status,TA,status,DirAvg,status,SpdAvg,
2010-03-17, 00:00:04,VALID,1005.12,VALID,0,VALID,91.5084,VALID,0,VALID,25.3779,VALID,354,VALID,0.681641,
2010-03-17, 00:01:04,VALID,1005.1,VALID,0,VALID,91.394,VALID,0,VALID,25.3779,VALID,353,VALID,0.592188,
2010-03-17, 00:02:04,VALID,1005.13,VALID,0,VALID,91.2719,VALID,0,VALID,25.3584,VALID,342,VALID,0.369141,
2010-03-17, 00:03:04,VALID,1005.13,VALID,0,VALID,91.3558,VALID,0,VALID,25.3779,VALID,334,VALID,0.161719,
2010-03-17, 00:04:04,VALID,1005.14,VALID,0,VALID,91.5084,VALID,0,VALID,25.3974,VALID,334,VALID,0.185937,
2010-03-17, 00:05:04,VALID,1005.14,VALID,0,VALID,91.3864,VALID,0,VALID,25.4169,VALID,295,VALID,0.230859,
2010-03-17, 00:06:04,VALID,1005.11,VALID,0,VALID,91.4626,VALID,0,VALID,25.4169,VALID,300,VALID,0.426953,
2010-03-17, 00:07:04,VALID,1005.05,VALID,0,VALID,91.2185,VALID,0,VALID,25.4169,VALID,346,VALID,0.544922,
2010-03-17, 00:08:04,VALID,1004.96,VALID,0,VALID,90.8295,VALID,0,VALID,25.4363,VALID,358,VALID,0.735156,
2010-03-17, 00:09:04,VALID,1004.91,VALID,0,VALID,90.4251,VALID,0,VALID,25.4558,VALID,6,VALID,0.9625,
2010-03-17, 00:10:04,VALID,1004.86,VALID,0,VALID,90.1123,VALID,0,VALID,25.4948,VALID,330,VALID,0.628906,
2010-03-17, 00:11:04,VALID,1004.87,VALID,0,VALID,90.2725,VALID,0,VALID,25.4928,VALID,348,VALID,0.305469,
2010-03-17, 00:12:04,VALID,1004.83,VALID,0,VALID,90.3183,VALID,0,VALID,25.5337,VALID,345,VALID,0.173438,
2010-03-17, 00:13:04,VALID,1004.84,VALID,0,VALID,90.4785,VALID,0,VALID,25.5337,VALID,312,VALID,0.589063,
2010-03-17, 00:14:04,VALID,1004.84,VALID,0,VALID,90.3717,VALID,0,VALID,25.5551,VALID,296,VALID,0.994531,
2010-03-17, 00:15:04,VALID,1004.83,VALID,0,VALID,90.4556,VALID,0,VALID,25.5532,VALID,288,VALID,0.2375,
2010-03-17, 00:16:04,VALID,1004.79,VALID,0,VALID,90.1276,VALID,0,VALID,25.5337,VALID,293,VALID,0.883984,
2010-03-17, 00:17:04,VALID,1004.74,VALID,0,VALID,90.4938,VALID,0,VALID,25.5337,VALID,289,VALID,0.417969,
2010-03-17, 00:18:04,VALID,1004.71,VALID,0,VALID,90.8295,VALID,0,VALID,25.5142,VALID,289,VALID,0.178125,
2010-03-17, 00:19:04,VALID,1004.68,VALID,0.5,VALID,90.8829,VALID,0,VALID,25.4948,VALID,352,VALID,0.901953,
2010-03-17, 00:20:04,VALID,1004.65,VALID,0,VALID,90.9363,VALID,0,VALID,25.4558,VALID,353,VALID,0.557422,
2010-03-17, 00:21:04,VALID,1004.6,VALID,0,VALID,91.2796,VALID,0,VALID,25.4363,VALID,353,VALID,0.480469,
2010-03-17, 00:22:04,VALID,1004.6,VALID,0,VALID,91.8365,VALID,0,VALID,25.3974,VALID,353,VALID,0.1875,
2010-03-17, 00:23:04,VALID,1004.61,VALID,0,VALID,92.0577,VALID,0,VALID,25.3993,VALID,353,VALID,0.340625,
2010-03-17, 00:24:04,VALID,1004.57,VALID,0,VALID,92.1721,VALID,0,VALID,25.3195,VALID,353,VALID,0.186719,
2010-03-17, 00:25:04,VALID,1004.57,VALID,0,VALID,92.4773,VALID,0,VALID,25.2806,VALID,353,VALID,0.331641,
2010-03-17, 00:26:04,VALID,1004.58,VALID,0,VALID,92.5688,VALID,0,VALID,25.2202,VALID,353,VALID,0.165234,
2010-03-17, 00:27:04,VALID,1004.61,VALID,0,VALID,92.729,VALID,0,VALID,25.224,VALID,353,VALID,0,
2010-03-17, 00:28:04,VALID,1004.59,VALID,0,VALID,92.8969,VALID,0,VALID,25.2027,VALID,353,VALID,0.187109,
2010-03-17, 00:29:04,VALID,1004.56,VALID,0,VALID,93.0189,VALID,0,VALID,25.1832,VALID,353,VALID,0.03125,
2010-03-17, 00:30:04,VALID,1004.57,VALID,0,VALID,93.1486,VALID,0,VALID,25.1832,VALID,353,VALID,0.327344,
2010-03-17, 00:31:04,VALID,1004.5,VALID,0,VALID,93.202,VALID,0,VALID,25.1442,VALID,353,VALID,0.0183594,
2010-03-17, 00:32:04,VALID,1004.49,VALID,0,VALID,93.3088,VALID,0,VALID,25.1034,VALID,353,VALID,0.303516,
2010-03-17, 00:33:04,VALID,1004.46,VALID,0,VALID,93.4156,VALID,0,VALID,25.1442,VALID,353,VALID,0.228516,
2010-03-17, 00:34:04,VALID,1004.44,VALID,0,VALID,93.5224,VALID,0,VALID,25.1248,VALID,353,VALID,0.0375,
2010-03-17, 00:35:04,VALID,1004.4,VALID,0,VALID,93.5682,VALID,0,VALID,25.0839,VALID,353,VALID,0,
2010-03-17, 00:36:04,VALID,1004.37,VALID,0,VALID,93.6674,VALID,0,VALID,25.0858,VALID,353,VALID,0,
2010-03-17, 00:37:04,VALID,1004.35,VALID,0,VALID,93.7055,VALID,0,VALID,25.0644,VALID,353,VALID,0.211719,
2010-03-17, 00:38:04,VALID,1004.28,VALID,0,VALID,93.6826,VALID,0,VALID,25.0469,VALID,353,VALID,0.214453,
2010-03-17, 00:39:04,VALID,1004.22,VALID,0,VALID,93.7055,VALID,0,VALID,25.0469,VALID,353,VALID,0.428125,
2010-03-17, 00:40:04,VALID,1004.19,VALID,0.5,VALID,93.614,VALID,0,VALID,25.006,VALID,353,VALID,0.371484,
2010-03-17, 00:41:04,VALID,1004.11,VALID,0,VALID,93.6216,VALID,0,VALID,25.0274,VALID,353,VALID,0.437891,
2010-03-17, 00:42:04,VALID,1004.08,VALID,0,VALID,93.6064,VALID,0,VALID,24.9866,VALID,12,VALID,0.209375,
2010-03-17, 00:43:04,VALID,1004.05,VALID,0,VALID,93.5911,VALID,0,VALID,24.9885,VALID,12,VALID,0.285547,
2010-03-17, 00:44:04,VALID,1004,VALID,0,VALID,93.5987,VALID,0,VALID,24.9885,VALID,12,VALID,0.149219,
2010-03-17, 00:45:04,VALID,1004,VALID,0,VALID,93.675,VALID,0,VALID,24.969,VALID,12,VALID,0.408203,
2010-03-17, 00:46:04,VALID,1003.98,VALID,0,VALID,93.6216,VALID,0,VALID,24.9087,VALID,12,VALID,0.421484,
2010-03-17, 00:47:04,VALID,1003.95,VALID,0,VALID,93.5377,VALID,0,VALID,24.8892,VALID,12,VALID,0.389453,
2010-03-17, 00:48:04,VALID,1003.95,VALID,0,VALID,93.5911,VALID,0,VALID,24.9087,VALID,12,VALID,0.130859,
2010-03-17, 00:49:04,VALID,1003.93,VALID,0,VALID,93.6521,VALID,0,VALID,24.9087,VALID,359,VALID,0.500391,
2010-03-17, 00:50:04,VALID,1003.94,VALID,0,VALID,93.4767,VALID,0,VALID,24.8911,VALID,357,VALID,0.309766,
2010-03-17, 00:51:04,VALID,1003.91,VALID,0,VALID,93.3775,VALID,0,VALID,24.8911,VALID,357,VALID,0.214844,
2010-03-17, 00:52:04,VALID,1003.91,VALID,0,VALID,93.3546,VALID,0,VALID,24.9106,VALID,357,VALID,0.0644531,
2010-03-17, 00:53:04,VALID,1003.91,VALID,0,VALID,93.3851,VALID,0,VALID,24.8911,VALID,357,VALID,0,
2010-03-17, 00:54:04,VALID,1003.86,VALID,0,VALID,93.3851,VALID,0,VALID,24.8697,VALID,357,VALID,0,
2010-03-17, 00:55:04,VALID,1003.87,VALID,0,VALID,93.3699,VALID,0,VALID,24.8503,VALID,357,VALID,0.269922,
2010-03-17, 00:56:04,VALID,1003.88,VALID,0,VALID,93.4156,VALID,0,VALID,24.8503,VALID,357,VALID,0.144531,
2010-03-17, 00:57:04,VALID,1003.88,VALID,0,VALID,93.3775,VALID,0,VALID,24.8716,VALID,357,VALID,0.0078125,
2010-03-17, 00:58:04,VALID,1003.82,VALID,0,VALID,93.4233,VALID,0,VALID,24.8522,VALID,357,VALID,0.264062,
2010-03-17, 00:59:04,VALID,1003.8,VALID,0,VALID,93.4843,VALID,0,VALID,24.8308,VALID,357,VALID,0.216016,
2010-03-17, 01:00:04,VALID,1003.83,VALID,0,VALID,93.5758,VALID,0.100563,VALID,24.8503,VALID,358,VALID,0.449219,
2010-03-17, 01:01:04,VALID,1003.78,VALID,0,VALID,93.7208,VALID,0,VALID,24.8716,VALID,54,VALID,0.532812,
2010-03-17, 01:02:04,VALID,1003.78,VALID,0,VALID,93.7895,VALID,0,VALID,24.8716,VALID,61,VALID,0.210156,
2010-03-17, 01:03:04,VALID,1003.78,VALID,0,VALID,93.8963,VALID,0,VALID,24.8522,VALID,61,VALID,0.257422,
2010-03-17, 01:04:04,VALID,1003.74,VALID,0,VALID,94.0031,VALID,0,VALID,24.8308,VALID,61,VALID,0.237891,
2010-03-17, 01:05:04,VALID,1003.73,VALID,0,VALID,94.087,VALID,0,VALID,24.8503,VALID,61,VALID,0.153125,
2010-03-17, 01:06:04,VALID,1003.72,VALID,0,VALID,94.1556,VALID,0,VALID,24.8522,VALID,61,VALID,0,
2010-03-17, 01:07:04,VALID,1003.74,VALID,0,VALID,94.2014,VALID,0,VALID,24.8113,VALID,61,VALID,0.548047,
2010-03-17, 01:08:04,VALID,1003.73,VALID,0,VALID,94.1862,VALID,0,VALID,24.7937,VALID,60,VALID,0.101563,
2010-03-17, 01:09:04,VALID,1003.68,VALID,0,VALID,94.1709,VALID,0,VALID,24.7335,VALID,60,VALID,0.273828,
2010-03-17, 01:10:04,VALID,1003.7,VALID,0,VALID,94.209,VALID,0,VALID,24.7353,VALID,60,VALID,0.176563,
2010-03-17, 01:11:04,VALID,1003.71,VALID,0,VALID,94.293,VALID,0,VALID,24.7335,VALID,60,VALID,0.358594,
2010-03-17, 01:12:04,VALID,1003.68,VALID,0,VALID,94.3387,VALID,0,VALID,24.714,VALID,60,VALID,0.414844,
2010-03-17, 01:13:04,VALID,1003.65,VALID,0,VALID,94.3769,VALID,0,VALID,24.6964,VALID,60,VALID,0.345313,
2010-03-17, 01:14:04,VALID,1003.66,VALID,0,VALID,94.3845,VALID,0,VALID,24.6769,VALID,60,VALID,0.382422,
2010-03-17, 01:15:04,VALID,1003.64,VALID,0,VALID,94.415,VALID,0,VALID,24.6556,VALID,60,VALID,0.237109,
2010-03-17, 01:16:04,VALID,1003.66,VALID,0,VALID,94.4303,VALID,0.100563,VALID,24.6574,VALID,60,VALID,0.132031,
2010-03-17, 01:17:04,VALID,1003.66,VALID,0,VALID,94.4074,VALID,0,VALID,24.6361,VALID,60,VALID,0.0921875,
2010-03-17, 01:18:04,VALID,1003.65,VALID,0,VALID,94.4532,VALID,0,VALID,24.6574,VALID,60,VALID,0,
2010-03-17, 01:19:04,VALID,1003.64,VALID,0,VALID,94.4608,VALID,0,VALID,24.6361,VALID,60,VALID,0,
2010-03-17, 01:20:04,VALID,1003.64,VALID,0,VALID,94.5218,VALID,0,VALID,24.6556,VALID,60,VALID,0,
2010-03-17, 01:21:04,VALID,1003.64,VALID,0,VALID,94.56,VALID,0,VALID,24.675,VALID,60,VALID,0,
2010-03-17, 01:22:04,VALID,1003.65,VALID,0,VALID,94.5752,VALID,0,VALID,24.6556,VALID,60,VALID,0,
2010-03-17, 01:23:04,VALID,1003.63,VALID,0,VALID,94.5142,VALID,0,VALID,24.6361,VALID,25,VALID,0.3625,
2010-03-17, 01:24:04,VALID,1003.63,VALID,0,VALID,94.4761,VALID,0,VALID,24.6556,VALID,54,VALID,0.432422,
2010-03-17, 01:25:04,VALID,1003.65,VALID,0,VALID,94.4379,VALID,0,VALID,24.6556,VALID,56,VALID,0.122266,
2010-03-17, 01:26:04,VALID,1003.65,VALID,0,VALID,94.354,VALID,0,VALID,24.6964,VALID,56,VALID,0.230859,
2010-03-17, 01:27:04,VALID,1003.66,VALID,0,VALID,94.2548,VALID,0,VALID,24.675,VALID,360,VALID,0.600781,
2010-03-17, 01:28:04,VALID,1003.68,VALID,0,VALID,94.1251,VALID,0,VALID,24.6945,VALID,360,VALID,0.448438,
2010-03-17, 01:29:04,VALID,1003.65,VALID,0,VALID,93.8963,VALID,0,VALID,24.6945,VALID,2,VALID,0.279687,
2010-03-17, 01:30:04,VALID,1003.72,VALID,0,VALID,93.6903,VALID,0,VALID,24.6945,VALID,36,VALID,0.184375,
2010-03-17, 01:31:04,VALID,1003.69,VALID,0,VALID,93.5377,VALID,0,VALID,24.714,VALID,1,VALID,0.214062,
2010-03-17, 01:32:04,VALID,1003.7,VALID,0,VALID,93.3012,VALID,0,VALID,24.7353,VALID,354,VALID,1.00781,
2010-03-17, 01:33:04,VALID,1003.7,VALID,0,VALID,92.9503,VALID,0,VALID,24.7743,VALID,20,VALID,0.708984,
2010-03-17, 01:34:04,VALID,1003.67,VALID,0,VALID,92.7443,VALID,0,VALID,24.8113,VALID,358,VALID,1.0043,
2010-03-17, 01:35:04,VALID,1003.66,VALID,0,VALID,92.3705,VALID,0,VALID,24.8308,VALID,7,VALID,0.438672,
2010-03-17, 01:36:04,VALID,1003.67,VALID,0,VALID,92.073,VALID,0,VALID,24.8503,VALID,7,VALID,0.667188,
2010-03-17, 01:37:04,VALID,1003.67,VALID,0,VALID,92.0348,VALID,0,VALID,24.9106,VALID,3,VALID,0.676953,
2010-03-17, 01:38:04,VALID,1003.66,VALID,0,VALID,91.8288,VALID,0.100563,VALID,24.8892,VALID,355,VALID,0.712891,
2010-03-17, 01:39:04,VALID,1003.67,VALID,0,VALID,91.7068,VALID,0,VALID,24.8892,VALID,20,VALID,0.766016,
2010-03-17, 01:40:04,VALID,1003.66,VALID,0,VALID,91.3635,VALID,0,VALID,24.9087,VALID,338,VALID,0.699219,
2010-03-17, 01:41:04,VALID,1003.65,VALID,0,VALID,91.4626,VALID,0,VALID,24.9495,VALID,352,VALID,0.385547,
2010-03-17, 01:42:04,VALID,1003.61,VALID,0,VALID,91.5084,VALID,0.100563,VALID,24.9087,VALID,5,VALID,0.964844,
2010-03-17, 01:43:04,VALID,1003.63,VALID,0,VALID,91.3177,VALID,0,VALID,24.93,VALID,3,VALID,0.511719,
2010-03-17, 01:44:04,VALID,1003.62,VALID,0,VALID,91.3635,VALID,0,VALID,24.9087,VALID,353,VALID,0.628125,
2010-03-17, 01:45:05,VALID,1003.59,VALID,0,VALID,91.5084,VALID,0,VALID,24.9087,VALID,357,VALID,0.941016,
2010-03-17, 01:46:05,VALID,1003.56,VALID,0,VALID,91.5618,VALID,0,VALID,24.8892,VALID,356,VALID,1.3457,
2010-03-17, 01:47:05,VALID,1003.59,VALID,0,VALID,91.6381,VALID,0.100563,VALID,24.8892,VALID,352,VALID,0.701563,
2010-03-17, 01:48:05,VALID,1003.59,VALID,0,VALID,91.7602,VALID,0,VALID,24.8716,VALID,6,VALID,0.768359,
2010-03-17, 01:49:05,VALID,1003.61,VALID,0,VALID,91.9356,VALID,0,VALID,24.8503,VALID,6,VALID,0.658594,
2010-03-17, 01:50:05,VALID,1003.58,VALID,0,VALID,91.8822,VALID,0,VALID,24.8308,VALID,17,VALID,1.14102,
2010-03-17, 01:51:05,VALID,1003.59,VALID,0,VALID,92.0348,VALID,0,VALID,24.8308,VALID,8,VALID,0.479297,
2010-03-17, 01:52:05,VALID,1003.59,VALID,0,VALID,92.0501,VALID,0.100563,VALID,24.8113,VALID,3,VALID,0.508594,
2010-03-17, 01:53:05,VALID,1003.57,VALID,0,VALID,92.1569,VALID,0,VALID,24.8327,VALID,4,VALID,0.603125,
2010-03-17, 01:54:05,VALID,1003.58,VALID,0,VALID,92.195,VALID,0.100563,VALID,24.8113,VALID,9,VALID,0.851563,
2010-03-17, 01:55:05,VALID,1003.56,VALID,0,VALID,92.2027,VALID,0,VALID,24.8113,VALID,11,VALID,0.903125,
2010-03-17, 01:56:05,VALID,1003.53,VALID,0,VALID,92.2866,VALID,0,VALID,24.8113,VALID,357,VALID,0.917578,
2010-03-17, 01:57:05,VALID,1003.5,VALID,0,VALID,92.2866,VALID,0.100563,VALID,24.8113,VALID,357,VALID,0.696094,
2010-03-17, 01:58:05,VALID,1003.47,VALID,0,VALID,92.4239,VALID,0,VALID,24.8113,VALID,357,VALID,0.566016,
2010-03-17, 01:59:05,VALID,1003.45,VALID,0,VALID,92.5612,VALID,0,VALID,24.7919,VALID,357,VALID,0.675781,
2010-03-17, 02:00:05,VALID,1003.46,VALID,0,VALID,92.7443,VALID,0.100563,VALID,24.7724,VALID,357,VALID,0.589844,
2010-03-17, 02:01:05,VALID,1003.46,VALID,0,VALID,92.9198,VALID,0.100563,VALID,24.7529,VALID,357,VALID,0.401172,
2010-03-17, 02:02:05,VALID,1003.44,VALID,0,VALID,93.1105,VALID,0,VALID,24.7335,VALID,357,VALID,0.135937,
2010-03-17, 02:03:05,VALID,1003.45,VALID,0,VALID,93.2478,VALID,0.100563,VALID,24.7353,VALID,357,VALID,0.278125,
2010-03-17, 02:04:05,VALID,1003.45,VALID,0,VALID,93.3241,VALID,0,VALID,24.6945,VALID,357,VALID,0.330859,
2010-03-17, 02:05:05,VALID,1003.44,VALID,0,VALID,93.3622,VALID,0,VALID,24.6556,VALID,357,VALID,0.222656,
2010-03-17, 02:06:05,VALID,1003.44,VALID,0,VALID,93.4767,VALID,0,VALID,24.6556,VALID,357,VALID,0.407813,
2010-03-17, 02:07:05,VALID,1003.46,VALID,0,VALID,93.5301,VALID,0.100563,VALID,24.6361,VALID,357,VALID,0.134375,
2010-03-17, 02:08:05,VALID,1003.46,VALID,0,VALID,93.6216,VALID,0,VALID,24.6166,VALID,357,VALID,0.227344,
2010-03-17, 02:09:05,VALID,1003.44,VALID,0,VALID,93.7208,VALID,0,VALID,24.6361,VALID,357,VALID,0.158594,
2010-03-17, 02:10:05,VALID,1003.48,VALID,0,VALID,93.9191,VALID,0,VALID,24.6574,VALID,357,VALID,0.3375,
2010-03-17, 02:11:05,VALID,1003.46,VALID,0,VALID,94.0412,VALID,0,VALID,24.6361,VALID,357,VALID,0.494531,
2010-03-17, 02:12:05,VALID,1003.48,VALID,0,VALID,94.1251,VALID,0,VALID,24.6574,VALID,357,VALID,0.427734,
2010-03-17, 02:13:05,VALID,1003.49,VALID,0,VALID,94.1785,VALID,0,VALID,24.6166,VALID,357,VALID,0.505078,
2010-03-17, 02:14:05,VALID,1003.51,VALID,0,VALID,94.2548,VALID,0,VALID,24.6166,VALID,357,VALID,0.722266,
2010-03-17, 02:15:05,VALID,1003.5,VALID,0,VALID,94.3311,VALID,0,VALID,24.638,VALID,8,VALID,0.776953,
2010-03-17, 02:16:05,VALID,1003.49,VALID,0,VALID,94.3692,VALID,0,VALID,24.5972,VALID,12,VALID,0.965625,
2010-03-17, 02:17:05,VALID,1003.47,VALID,0,VALID,94.3921,VALID,0,VALID,24.599,VALID,12,VALID,0.873438,
2010-03-17, 02:18:05,VALID,1003.49,VALID,0,VALID,94.4074,VALID,0,VALID,24.5796,VALID,354,VALID,0.796094,
2010-03-17, 02:19:05,VALID,1003.47,VALID,0,VALID,94.4684,VALID,0,VALID,24.5796,VALID,354,VALID,0.521094,
2010-03-17, 02:20:05,VALID,1003.47,VALID,0,VALID,94.4608,VALID,0,VALID,24.5796,VALID,358,VALID,0.767969,
2010-03-17, 02:21:05,VALID,1003.49,VALID,0,VALID,94.4761,VALID,0,VALID,24.5796,VALID,358,VALID,0.666406,
2010-03-17, 02:22:05,VALID,1003.49,VALID,0,VALID,94.4379,VALID,0.100563,VALID,24.599,VALID,360,VALID,0.462109,
2010-03-17, 02:23:05,VALID,1003.49,VALID,0,VALID,94.4227,VALID,0,VALID,24.6185,VALID,360,VALID,0.646484,
2010-03-17, 02:24:05,VALID,1003.5,VALID,0,VALID,94.415,VALID,0,VALID,24.5972,VALID,2,VALID,0.713281,
2010-03-17, 02:25:05,VALID,1003.52,VALID,0,VALID,94.4227,VALID,0,VALID,24.599,VALID,20,VALID,0.771094,
2010-03-17, 02:26:05,VALID,1003.5,VALID,0,VALID,94.3921,VALID,0,VALID,24.5796,VALID,20,VALID,0.684766,
2010-03-17, 02:27:05,VALID,1003.51,VALID,0,VALID,94.354,VALID,0,VALID,24.6185,VALID,7,VALID,0.601172,
2010-03-17, 02:28:05,VALID,1003.52,VALID,0,VALID,94.354,VALID,0,VALID,24.6166,VALID,7,VALID,0.364844,
2010-03-17, 02:29:05,VALID,1003.55,VALID,0,VALID,94.2777,VALID,0,VALID,24.6185,VALID,7,VALID,0.488281,
2010-03-17, 02:30:05,VALID,1003.56,VALID,0,VALID,94.2167,VALID,0,VALID,24.638,VALID,356,VALID,0.366406,
2010-03-17, 02:31:05,VALID,1003.56,VALID,0,VALID,94.1556,VALID,0,VALID,24.6361,VALID,356,VALID,0.415234,
2010-03-17, 02:32:05,VALID,1003.55,VALID,0,VALID,94.1328,VALID,0,VALID,24.6574,VALID,356,VALID,0.455078,
2010-03-17, 02:33:05,VALID,1003.53,VALID,0,VALID,94.0717,VALID,0,VALID,24.638,VALID,356,VALID,0.490234,
2010-03-17, 02:34:05,VALID,1003.51,VALID,0,VALID,94.0336,VALID,0,VALID,24.6593,VALID,356,VALID,0.310156,
2010-03-17, 02:35:05,VALID,1003.52,VALID,0,VALID,94.1099,VALID,0,VALID,24.6166,VALID,356,VALID,0.516406,
2010-03-17, 02:36:05,VALID,1003.51,VALID,0,VALID,94.0336,VALID,0,VALID,24.6185,VALID,355,VALID,0.403906,
2010-03-17, 02:37:05,VALID,1003.48,VALID,0,VALID,94.0488,VALID,0,VALID,24.6185,VALID,355,VALID,0.315234,
2010-03-17, 02:38:05,VALID,1003.51,VALID,0,VALID,94.0717,VALID,0,VALID,24.5972,VALID,357,VALID,0.771484,
2010-03-17, 02:39:05,VALID,1003.47,VALID,0,VALID,94.0031,VALID,0,VALID,24.5972,VALID,2,VALID,1.36563,
2010-03-17, 02:40:05,VALID,1003.48,VALID,0,VALID,93.9802,VALID,0,VALID,24.6574,VALID,358,VALID,0.695313,
2010-03-17, 02:41:05,VALID,1003.41,VALID,0,VALID,93.8581,VALID,0,VALID,24.6574,VALID,358,VALID,0.569922,
2010-03-17, 02:42:05,VALID,1003.39,VALID,0,VALID,93.8123,VALID,0,VALID,24.6769,VALID,358,VALID,0.726953,
2010-03-17, 02:43:05,VALID,1003.35,VALID,0,VALID,93.5606,VALID,0,VALID,24.6574,VALID,319,VALID,1.36641,
2010-03-17, 02:44:05,VALID,1003.36,VALID,0,VALID,93.2249,VALID,0,VALID,24.6769,VALID,336,VALID,0.625,
2010-03-17, 02:45:05,VALID,1003.34,VALID,0,VALID,92.8816,VALID,0,VALID,24.714,VALID,6,VALID,1.16484,
2010-03-17, 02:46:05,VALID,1003.33,VALID,0,VALID,92.607,VALID,0,VALID,24.7724,VALID,335,VALID,0.719531,
2010-03-17, 02:47:05,VALID,1003.29,VALID,0,VALID,92.3476,VALID,0,VALID,24.7724,VALID,275,VALID,0.466797,
2010-03-17, 02:48:05,VALID,1003.3,VALID,0,VALID,92.0653,VALID,0,VALID,24.7724,VALID,323,VALID,1.21289,
2010-03-17, 02:49:05,VALID,1003.28,VALID,0,VALID,91.7983,VALID,0,VALID,24.8132,VALID,287,VALID,1.79688,
2010-03-17, 02:50:05,VALID,1003.29,VALID,0,VALID,89.8911,VALID,0,VALID,24.8503,VALID,272,VALID,1.33164,
2010-03-17, 02:51:05,VALID,1003.3,VALID,0,VALID,89.3494,VALID,0,VALID,24.9671,VALID,335,VALID,0.603906,
2010-03-17, 02:52:05,VALID,1003.32,VALID,0,VALID,88.8459,VALID,0,VALID,25.0274,VALID,328,VALID,0.939844,
2010-03-17, 02:53:05,VALID,1003.31,VALID,0,VALID,88.6552,VALID,0,VALID,25.045,VALID,220,VALID,0.592578,
2010-03-17, 02:54:05,VALID,1003.28,VALID,0,VALID,88.4187,VALID,0,VALID,25.1053,VALID,342,VALID,0.950391,
2010-03-17, 02:55:05,VALID,1003.29,VALID,0,VALID,88.5332,VALID,0,VALID,25.1053,VALID,299,VALID,0.565234,
2010-03-17, 02:56:05,VALID,1003.26,VALID,0,VALID,88.5942,VALID,0,VALID,25.0644,VALID,326,VALID,0.289453,
2010-03-17, 02:57:05,VALID,1003.27,VALID,0,VALID,88.5866,VALID,0,VALID,25.0663,VALID,300,VALID,0.861328,
2010-03-17, 02:58:05,VALID,1003.27,VALID,0,VALID,88.6628,VALID,0,VALID,25.0469,VALID,285,VALID,0.762109,
2010-03-17, 02:59:05,VALID,1003.25,VALID,0,VALID,88.7697,VALID,0,VALID,25.006,VALID,313,VALID,0.638672,
2010-03-17, 03:00:05,VALID,1003.27,VALID,0,VALID,88.8688,VALID,0,VALID,25.006,VALID,299,VALID,0.460156,
2010-03-17, 03:01:05,VALID,1003.3,VALID,0,VALID,88.9527,VALID,0,VALID,24.9671,VALID,302,VALID,0.425391,
2010-03-17, 03:02:05,VALID,1003.32,VALID,0,VALID,88.9909,VALID,0,VALID,24.9476,VALID,306,VALID,0.345703,
2010-03-17, 03:03:05,VALID,1003.37,VALID,0,VALID,88.7697,VALID,0,VALID,24.9495,VALID,291,VALID,1.19766,
2010-03-17, 03:04:05,VALID,1003.38,VALID,0,VALID,88.8993,VALID,0,VALID,24.9476,VALID,268,VALID,0.655859,
2010-03-17, 03:05:05,VALID,1003.42,VALID,0,VALID,88.9909,VALID,0,VALID,24.9476,VALID,267,VALID,0.358203,
2010-03-17, 03:06:05,VALID,1003.47,VALID,0,VALID,88.9527,VALID,0,VALID,24.969,VALID,291,VALID,0.760547,
2010-03-17, 03:07:05,VALID,1003.48,VALID,0,VALID,89.0061,VALID,0,VALID,24.9495,VALID,300,VALID,0.597266,
2010-03-17, 03:08:05,VALID,1003.51,VALID,0,VALID,89.1816,VALID,0,VALID,24.9495,VALID,295,VALID,0.269141,
2010-03-17, 03:09:05,VALID,1003.56,VALID,0,VALID,89.3494,VALID,0,VALID,24.9087,VALID,303,VALID,0.225,
2010-03-17, 03:10:05,VALID,1003.56,VALID,0,VALID,89.441,VALID,0,VALID,24.8892,VALID,270,VALID,0.501953,
2010-03-17, 03:11:05,VALID,1003.57,VALID,0,VALID,89.5783,VALID,0,VALID,24.8697,VALID,255,VALID,0.0382813,
2010-03-17, 03:12:05,VALID,1003.61,VALID,0,VALID,89.7309,VALID,0,VALID,24.8327,VALID,257,VALID,0.192188,
2010-03-17, 03:13:05,VALID,1003.62,VALID,0,VALID,89.8835,VALID,0,VALID,24.8113,VALID,350,VALID,0.503906,
2010-03-17, 03:14:05,VALID,1003.62,VALID,0,VALID,89.853,VALID,0,VALID,24.7937,VALID,3,VALID,0.746094,
2010-03-17, 03:15:05,VALID,1003.59,VALID,0,VALID,89.9445,VALID,0,VALID,24.7724,VALID,337,VALID,0.317578,
2010-03-17, 03:16:05,VALID,1003.59,VALID,0,VALID,90.0589,VALID,0.100563,VALID,24.7529,VALID,299,VALID,0.761719,
2010-03-17, 03:17:05,VALID,1003.56,VALID,0,VALID,89.8377,VALID,0,VALID,24.7724,VALID,288,VALID,0.751172,
2010-03-17, 03:18:05,VALID,1003.57,VALID,0,VALID,89.7919,VALID,0.100563,VALID,24.7724,VALID,352,VALID,0.778906,
2010-03-17, 03:19:05,VALID,1003.53,VALID,0,VALID,89.8072,VALID,0.100563,VALID,24.7724,VALID,347,VALID,0.388281,
2010-03-17, 03:20:05,VALID,1003.51,VALID,0,VALID,89.7156,VALID,0,VALID,24.7724,VALID,1,VALID,0.305469,
2010-03-17, 03:21:05,VALID,1003.5,VALID,0,VALID,89.8911,VALID,0,VALID,24.7529,VALID,1,VALID,0.398438,
2010-03-17, 03:22:05,VALID,1003.51,VALID,0,VALID,89.9445,VALID,0,VALID,24.7529,VALID,1,VALID,0.625391,
2010-03-17, 03:23:05,VALID,1003.53,VALID,0,VALID,89.9674,VALID,0,VALID,24.7353,VALID,349,VALID,0.548828,
2010-03-17, 03:24:05,VALID,1003.52,VALID,0,VALID,90.0894,VALID,0.100563,VALID,24.6945,VALID,354,VALID,0.335156,
2010-03-17, 03:25:05,VALID,1003.51,VALID,0,VALID,90.2878,VALID,0,VALID,24.6945,VALID,330,VALID,0.294531,
2010-03-17, 03:26:05,VALID,1003.54,VALID,0,VALID,90.448,VALID,0.100563,VALID,24.6769,VALID,330,VALID,0,
2010-03-17, 03:27:05,VALID,1003.53,VALID,0,VALID,90.8295,VALID,0,VALID,24.6361,VALID,330,VALID,0,
2010-03-17, 03:28:05,VALID,1003.54,VALID,0,VALID,91.188,VALID,0,VALID,24.6166,VALID,330,VALID,0,
2010-03-17, 03:29:05,VALID,1003.57,VALID,0,VALID,91.4474,VALID,0.100563,VALID,24.5972,VALID,330,VALID,0,
2010-03-17, 03:30:05,VALID,1003.58,VALID,0,VALID,91.6305,VALID,0,VALID,24.5796,VALID,330,VALID,0.2,
2010-03-17, 03:31:05,VALID,1003.61,VALID,0,VALID,91.7373,VALID,0,VALID,24.5582,VALID,330,VALID,0.111328,
2010-03-17, 03:32:05,VALID,1003.61,VALID,0,VALID,91.8212,VALID,0,VALID,24.5174,VALID,330,VALID,0.0632813,
2010-03-17, 03:33:05,VALID,1003.58,VALID,0,VALID,91.928,VALID,0,VALID,24.5388,VALID,330,VALID,0.0078125,
2010-03-17, 03:34:05,VALID,1003.56,VALID,0,VALID,92.0348,VALID,0,VALID,24.5388,VALID,330,VALID,0.0078125,
2010-03-17, 03:35:05,VALID,1003.55,VALID,0,VALID,92.1645,VALID,0,VALID,24.5601,VALID,330,VALID,0.282422,
2010-03-17, 03:36:05,VALID,1003.54,VALID,0,VALID,92.1416,VALID,0,VALID,24.5388,VALID,336,VALID,0.393359,
2010-03-17, 03:37:05,VALID,1003.52,VALID,0,VALID,92.1721,VALID,0,VALID,24.5388,VALID,336,VALID,0.396484,
2010-03-17, 03:38:05,VALID,1003.53,VALID,0,VALID,92.3171,VALID,0.100563,VALID,24.498,VALID,336,VALID,0.239453,
2010-03-17, 03:39:05,VALID,1003.52,VALID,0,VALID,92.4086,VALID,0,VALID,24.4998,VALID,336,VALID,0.08125,
2010-03-17, 03:40:05,VALID,1003.53,VALID,0,VALID,92.546,VALID,0,VALID,24.4998,VALID,336,VALID,0.0746094,
2010-03-17, 03:41:05,VALID,1003.52,VALID,0,VALID,92.6756,VALID,0,VALID,24.5017,VALID,331,VALID,0.0816406,
2010-03-17, 03:42:05,VALID,1003.51,VALID,0,VALID,92.729,VALID,0,VALID,24.4804,VALID,294,VALID,0.538672,
2010-03-17, 03:43:05,VALID,1003.53,VALID,0,VALID,92.6833,VALID,0,VALID,24.5017,VALID,293,VALID,0.544141,
2010-03-17, 03:44:05,VALID,1003.5,VALID,0,VALID,92.6528,VALID,0.100563,VALID,24.5212,VALID,301,VALID,0.380469,